| time (UTC) | temp F | wind direction | speed knots | gust knots | rain 1hr in | rain 24hr in | rain mn in | humidity % | barometer mb |
| 20260503210534 | 65 | 270 | 5.2 | 12.2 | 0.00 | 0.00 | 0.00 | 66 | 1013.0 |
| 20260503210503 | 65 | 270 | 5.2 | 12.2 | 0.00 | 0.00 | 0.00 | 66 | 1013.0 |
| 20260503203503 | 64 | 180 | 4.3 | 9.6 | 0.00 | 0.00 | 0.00 | 66 | 1013.0 |
| 20260503200504 | 63 | 225 | 6.1 | 10.4 | 0.00 | 0.00 | 0.00 | 68 | 1013.2 |
| 20260503193503 | 63 | 225 | 5.2 | 10.4 | 0.00 | 0.00 | 0.00 | 68 | 1013.3 |
| 20260503190503 | 64 | 225 | 5.2 | 8.7 | 0.00 | 0.00 | 0.00 | 66 | 1013.2 |
| 20260503183503 | 63 | 248 | 6.1 | 12.2 | 0.00 | 0.00 | 0.00 | 69 | 1013.2 |
| 20260503180503 | 62 | 270 | 4.3 | 7.8 | 0.00 | 0.00 | 0.00 | 70 | 1013.1 |
| 20260503173503 | 62 | 248 | 4.3 | 7.0 | 0.00 | 0.00 | 0.00 | 70 | 1013.2 |
| 20260503170503 | 61 | 202 | 3.5 | 7.0 | 0.00 | 0.00 | 0.00 | 74 | 1013.1 |
| 20260503150503 | 56 | 225 | 1.7 | 2.6 | 0.00 | 0.00 | 0.00 | 83 | 1012.5 |
| 20260503130503 | 55 | 225 | 1.7 | 2.6 | 0.00 | 0.00 | 0.00 | 83 | 1010.9 |
| 20260503110503 | 55 | 225 | 2.6 | 5.2 | 0.00 | 0.00 | 0.00 | 83 | 1011.2 |
| 20260503090503 | 55 | 248 | 0.9 | 1.7 | 0.00 | 0.00 | 0.00 | 83 | 1011.4 |
| 20260503080712 | 56 | 270 | 3.5 | 6.1 | 0.00 | 0.00 | 0.00 | 82 | 1012.0 |
| 20260503080504 | 56 | 270 | 3.5 | 6.1 | 0.00 | 0.00 | 0.00 | 82 | 1012.0 |
| 20260503070503 | 56 | 270 | 2.6 | 3.5 | 0.00 | 0.00 | 0.00 | 82 | 1012.0 |
| 20260503053503 | 56 | 248 | 7.0 | 9.6 | 0.00 | 0.00 | 0.00 | 82 | 1012.5 |
| 20260503050503 | 56 | 225 | 1.7 | 4.3 | 0.00 | 0.00 | 0.00 | 82 | 1012.4 |
| 20260503043503 | 56 | 248 | 6.1 | 8.7 | 0.00 | 0.00 | 0.00 | 81 | 1012.0 |
| 20260503040503 | 56 | 248 | 5.2 | 8.7 | 0.00 | 0.00 | 0.00 | 81 | 1012.1 |
| 20260503033543 | 56 | 292 | 1.7 | 3.5 | 0.00 | 0.00 | 0.00 | 81 | 1011.9 |
| 20260503033503 | 56 | 292 | 1.7 | 3.5 | 0.00 | 0.00 | 0.00 | 81 | 1011.9 |
| 20260503030503 | 56 | 292 | 7.8 | 11.3 | 0.00 | 0.00 | 0.00 | 81 | 1011.4 |
| 20260503023824 | 57 | 292 | 6.1 | 8.7 | 0.00 | 0.00 | 0.00 | 80 | 1011.3 |
| 20260503023503 | 57 | 292 | 6.1 | 8.7 | 0.00 | 0.00 | 0.00 | 80 | 1011.3 |
| 20260503020537 | 57 | 248 | 5.2 | 11.3 | 0.00 | 0.00 | 0.00 | 79 | 1011.3 |
| 20260503020503 | 57 | 248 | 5.2 | 11.3 | 0.00 | 0.00 | 0.00 | 79 | 1011.3 |
| 20260503013503 | 58 | 248 | 2.6 | 6.1 | 0.00 | 0.00 | 0.00 | 77 | 1011.6 |
| 20260503010504 | 59 | 270 | 5.2 | 7.0 | 0.00 | 0.00 | 0.00 | 75 | 1011.7 |
| 20260503003812 | 59 | 225 | 6.1 | 9.6 | 0.00 | 0.00 | 0.00 | 74 | 1011.8 |
| 20260503003503 | 59 | 225 | 6.1 | 9.6 | 0.00 | 0.00 | 0.00 | 74 | 1011.8 |
| 20260503000503 | 60 | 270 | 7.8 | 13.0 | 0.00 | 0.00 | 0.00 | 73 | 1011.9 |
| 20260502233541 | 60 | 248 | 8.7 | 12.2 | 0.00 | 0.00 | 0.00 | 71 | 1012.3 |
| 20260502233503 | 60 | 248 | 8.7 | 12.2 | 0.00 | 0.00 | 0.00 | 71 | 1012.3 |
| 20260502230504 | 62 | 248 | 1.7 | 6.1 | 0.00 | 0.00 | 0.00 | 71 | 1012.5 |
| 20260502223503 | 61 | 270 | 5.2 | 7.8 | 0.00 | 0.00 | 0.00 | 71 | 1013.0 |
| 20260502220503 | 60 | 202 | 6.1 | 9.6 | 0.00 | 0.00 | 0.00 | 72 | 1013.4 |
| 20260502213503 | 60 | 248 | 5.2 | 7.0 | 0.00 | 0.00 | 0.00 | 71 | 1013.4 |